星链-32155 (STARLINK-32155)

导读

STARLINK-32155是美国太空探索技术公司(SpaceX)于2024年7月27日发射的星链(Starlink)低轨互联网卫星,属于Starlink星座组网任务的组成部分。星链卫星运行于近地轨道,采用霍尔效应推进系统,支持光学卫星间通信,可为全球提供低延迟高速互联网接入服务,推动卫星互联网星座规模化部署,目前该卫星已随星链组网持续提供服务,助力SpaceX构建覆盖全球的卫星通信网络。

Basic Information
目录编号:
60274
目录名称:
STARLINK-32155
国际标识:
2024-131V
轨道中心:
EARTH
卫星名称:
星链-32155 (STARLINK-32155)
卫星全名:
星链-32155 (STARLINK-32155)
卫星状态:
在轨 (已飞行770 天)
发射日期:
2024-07-27 UTC
国别 :
美国 (US)
星等 :
--
Orbit Information
数据来源 国际轨道数据 AOE轨道数据
星历时间 2026-09-04T00:22:01+0800
1天前
查看轨道信息
2026-09-02T05:00:00+0800
3天前
查看轨道信息
半长轴 6848.863km 6848.814km
偏心率 0.0001098 0.0001394
轨道倾角 53.161° 53.161°
近地点辐角 101.062° 131.981°
升交点赤经 304.712° 313.124°
平近点角 259.051° 338.777°
近地点 469.973km 469.722km
远地点 471.479km 471.632km
周期 94.013分钟 94.012分钟
每日圈数 15.31705 15.317213
Detailed Information
卫星平台:
Starlink v2.0 mini
运营商:
太空探索技术公司
运营商所在国:
美国
制造商(研发单位):
太空探索技术公司
制造商所在国:
美国
使用方式:
暂无
Satellite Introduction
星链(Starlink)计划是由太空探索技术公司(SpaceX)提出的一个巨型低轨卫星互联网星座项目,计划在2019年至2024年间在太空搭建由约1.2万颗卫星组成的“星链”网络,其中1584颗将部署在地球上空550千米处的近地轨道,并从2020年开始工作。该卫星仍在工作。
2D Orbit Map
3D Orbit Map
Orbit Altitude Analysis Chart
Orbit Inclination Analysis Chart
Orbit Comprehensive Analysis Chart
View Comprehensive Chart
Conjunction Data List
Event ID Objects TCA Miss Dist (km) Collision Risk Probability Collision Risk Index (CRI) Action
CDM_260905-122505-146506-027421
2026-09-05T
12:25:58+0000
2.240 km
极远距离
1.714307E-6 低风险 0.4
CDM_260905-212706-027406-969821
2026-09-05T
21:27:42+0000
2.627 km
极远距离
1.598988E-6 低风险 0.39
CDM_260906-085706-027406-840021
2026-09-06T
08:57:37+0000
2.486 km
极远距离
1.548972E-6 低风险 0.39
CDM_260904-225705-369106-027422
2026-09-04T
22:57:23+0000
2.796 km
极远距离
1.463932E-6 低风险 0.38
CDM_260906-110306-027406-554321
2026-09-06T
11:03:43+0000
2.946 km
极远距离
8.541047E-7 极低风险 0.34
CDM_260907-000806-027406-930121
2026-09-07T
00:08:48+0000
2.884 km
极远距离
8.436517E-7 极低风险 0.34